Regional Weather Roundup
Issued by NWS Green Bay, WI

Home | Current Version | Previous Version | Graphics & Text | Print | Product List | Glossary Off
Versions: 1 2 3 4 5 6 7 8 9 10 11 12 13 14 15 16 17 18 19 20 21 22 23 24 25 26 27 28 29 30 31 32 33 34 35 36 37 38 39 40 41 42 43 44 45 46 47 48 49 50

000
ASUS43 KGRB 241610
RWRGRB

NORTH-CENTRAL AND NORTHEAST WISCONSIN REGIONAL WEATHER ROUNDUP
NATIONAL WEATHER SERVICE GREEN BAY WI
1100 AM CDT THU JUL 24 2014

WIZ005-009-010>012-018-019-241700-
NORTH CENTRAL WISCONSIN

CITY           SKY/WX    TMP DP  RH WIND       PRES   REMARKS
IRONWOOD       MOSUNNY   70  52  52 NW7       30.13S
MANITOWISH WTR PTSUNNY   67  49  52 W3        30.17F
ARBOR VITAE    MOSUNNY   74  50  43 W5        30.17S
EAGLE RIVER    MOSUNNY   68  46  45 N3        30.16F
LAND O LAKES   MOSUNNY   69  47  45 SW3       30.17F
RHINELANDER      N/A     68  49  50 VRB3      30.18S
PHILLIPS       MOSUNNY   71  51  49 CALM      30.16S
ANTIGO         SUNNY     67  50  56 W5        30.18F
TOMAHAWK       MOSUNNY   68  50  52 CALM      30.18S
MERRILL        SUNNY     69  52  54 CALM      30.18R
$$

WIZ013-073-241700-
NORTHEAST WISCONSIN

CITY           SKY/WX    TMP DP  RH WIND       PRES   REMARKS
IRON MOUNTAIN  SUNNY     70  48  45 CALM      30.14F
MARINETTE      MOSUNNY   70  52  52 SE8       30.16S
OCONTO         SUNNY     68  52  55 S8        30.17R
$$

WIZ017-030-035>037-045-241700-
CENTRAL WISCONSIN

CITY           SKY/WX    TMP DP  RH WIND       PRES   REMARKS
MEDFORD        MOSUNNY   70  51  51 NE3       30.18S
WAUSAU         SUNNY     70  51  51 S6        30.16S
MOSINEE        NOT AVBL
MARSHFIELD     SUNNY     70  55  59 W3        30.18R
WISC RAPIDS    SUNNY     72  50  45 S6        30.19R
STEVENS POINT  SUNNY     69  48  47 SW7       30.19R
WAUPACA        SUNNY     74  48  40 S7        30.18S
SHAWANO        SUNNY     71  49  46 CALM      30.17F
CLINTONVILLE   SUNNY     70  48  46 S7        30.18S
$$

WIZ038-039-048-051-241700-
FOX VALLEY

CITY           SKY/WX    TMP DP  RH WIND       PRES   REMARKS
NWS GREEN BAY  SUNNY     71  45  39 CALM      30.17F
APPLETON       MOSUNNY   70  46  43 CALM      30.19S
OSHKOSH        SUNNY     69  50  50 VRB5      30.18S
FOND DU LAC    SUNNY     72  48  42 NE6       30.18S
$$

WIZ022-050-052-241700-
EAST CENTRAL WISCONSIN

CITY           SKY/WX    TMP DP  RH WIND       PRES   REMARKS
STURGEON BAY   SUNNY     68  48  49 N5        30.18F
MANITOWOC      SUNNY     66  48  52 SE8       30.18F
SHEBOYGAN      SUNNY     68  45  43 NE6       30.19S
$$

LMZ563-521-522-541>543-241700-
LAKESHORE

STATION/POSITION TIME  TEMP    WIND        PRES    VSBY  WAVE
                       AIR SEA DIR/SP/G                  HT/PER
                 (UTC) (F)     (DEG/KT/KT) (MB)    (MI)  (FT/S)
SHEBOYGAN LKSHOR 1600   59      50/  3/  3 1022.6S
KEWAUNEE LKSHORE 1600   59     160/  4/  5 1022.5F
TWO RIVERS CG    1500   61                   N/A       6   0
NORTHPORT PIER   1600   65     330/  6/  8 1021.3F
N MID LAKE BUOY  1600   58 54  230/  4/  4 1021.0F         0
CHAMBERS ISLAND  1600   66      80/  6/  7 1021.3S
MENOMINEE LKSHOR 1600   64     140/  9/ 10 1022.0S
$$



USA.gov is the U.S. government's official web portal to all federal, state and local government web resources and services.